Time,TemperatureF,DewpointF,PressureIn,WindDirection,WindDirectionDegrees,WindSpeedMPH,WindSpeedGustMPH,Humidity,HourlyPrecipIn,Conditions,Clouds,dailyrainin,SoftwareType,DateUTC
2013-04-03 00:02:00,37.0,31.0,-100.00,NNW,336,2.0,4.0,79,-99.99,,,-99.99,,2013-04-03 06:02:00,
2013-04-03 00:12:00,37.0,31.0,-100.00,NNW,336,2.0,4.0,79,-99.99,,,-99.99,,2013-04-03 06:12:00,
2013-04-03 00:22:00,36.0,32.0,-100.00,WSW,257,1.0,5.0,84,-99.99,,,-99.99,,2013-04-03 06:22:00,
2013-04-03 00:32:00,36.0,32.0,-100.00,WSW,257,1.0,5.0,84,-99.99,,,-99.99,,2013-04-03 06:32:00,
2013-04-03 00:42:00,36.0,32.0,-100.00,WSW,257,1.0,5.0,84,-99.99,,,-99.99,,2013-04-03 06:42:00,
2013-04-03 01:32:00,33.0,31.0,-100.00,SE,127,1.0,3.0,94,-99.99,,,-99.99,,2013-04-03 07:32:00,
2013-04-03 01:42:00,33.0,31.0,-100.00,SE,127,1.0,3.0,94,-99.99,,,-99.99,,2013-04-03 07:42:00,
2013-04-03 01:52:00,32.0,31.0,-100.00,South,170,0.0,1.0,96,-99.99,,,-99.99,,2013-04-03 07:52:00,
2013-04-03 02:02:00,32.0,32.0,-100.00,SSE,168,1.0,2.0,98,-99.99,,,-99.99,,2013-04-03 08:02:00,
2013-04-03 02:12:00,32.0,32.0,-100.00,SSE,168,1.0,2.0,98,-99.99,,,-99.99,,2013-04-03 08:12:00,
2013-04-03 02:22:00,31.0,31.0,-100.00,South,186,1.0,2.0,99,-99.99,,,-99.99,,2013-04-03 08:22:00,
2013-04-03 02:32:00,31.0,31.0,-100.00,North,9,0.0,1.0,100,-99.99,,,-99.99,,2013-04-03 08:32:00,
2013-04-03 02:42:00,31.0,31.0,-100.00,North,9,0.0,1.0,100,-99.99,,,-99.99,,2013-04-03 08:42:00,
2013-04-03 02:52:00,31.0,31.0,-100.00,SE,130,0.0,1.0,99,-99.99,,,-99.99,,2013-04-03 08:52:00,
2013-04-03 03:02:00,31.0,31.0,-100.00,South,170,1.0,2.0,100,-99.99,,,-99.99,,2013-04-03 09:02:00,
2013-04-03 03:12:00,31.0,31.0,-100.00,South,170,1.0,2.0,100,-99.99,,,-99.99,,2013-04-03 09:12:00,
2013-04-03 03:22:00,31.0,31.0,-100.00,SSW,195,0.0,1.0,100,-99.99,,,-99.99,,2013-04-03 09:22:00,
2013-04-03 03:32:00,30.0,30.0,-100.00,East,83,0.0,1.0,100,-99.99,,,-99.99,,2013-04-03 09:32:00,
2013-04-03 03:43:00,30.0,30.0,-100.00,East,83,0.0,1.0,100,-99.99,,,-99.99,,2013-04-03 09:43:00,
2013-04-03 03:52:00,30.0,30.0,-100.00,SE,127,0.0,1.0,100,-99.99,,,-99.99,,2013-04-03 09:52:00,
2013-04-03 04:02:00,30.0,30.0,-100.00,SSE,148,0.0,1.0,100,-99.99,,,-99.99,,2013-04-03 10:02:00,
2013-04-03 04:12:00,30.0,30.0,-100.00,SSE,148,0.0,1.0,100,-99.99,,,-99.99,,2013-04-03 10:12:00,
2013-04-03 04:22:00,30.0,30.0,-100.00,SSE,152,1.0,1.0,100,-99.99,,,-99.99,,2013-04-03 10:22:00,
2013-04-03 04:33:00,29.0,29.0,-100.00,SSE,153,0.0,1.0,100,-99.99,,,-99.99,,2013-04-03 10:33:00,
2013-04-03 04:42:00,29.0,29.0,-100.00,SSE,153,0.0,1.0,100,-99.99,,,-99.99,,2013-04-03 10:42:00,
2013-04-03 04:52:00,29.0,29.0,-100.00,SSE,153,1.0,2.0,100,-99.99,,,-99.99,,2013-04-03 10:52:00,
2013-04-03 05:02:00,30.0,30.0,-100.00,South,186,1.0,2.0,100,-99.99,,,-99.99,,2013-04-03 11:02:00,
2013-04-03 05:12:00,30.0,30.0,-100.00,South,186,1.0,2.0,100,-99.99,,,-99.99,,2013-04-03 11:12:00,
2013-04-03 05:22:00,29.0,29.0,-100.00,South,188,0.0,1.0,100,-99.99,,,-99.99,,2013-04-03 11:22:00,
2013-04-03 05:32:00,29.0,29.0,-100.00,SSW,195,0.0,1.0,100,-99.99,,,-99.99,,2013-04-03 11:32:00,
2013-04-03 05:42:00,29.0,29.0,-100.00,SSW,195,0.0,1.0,100,-99.99,,,-99.99,,2013-04-03 11:42:00,
2013-04-03 05:52:00,29.0,29.0,-100.00,South,187,0.0,0.0,100,-99.99,,,-99.99,,2013-04-03 11:52:00,
2013-04-03 06:02:00,29.0,29.0,-100.00,SSE,162,0.0,1.0,100,-99.99,,,-99.99,,2013-04-03 12:02:00,
2013-04-03 06:12:00,29.0,29.0,-100.00,SSE,162,0.0,1.0,100,-99.99,,,-99.99,,2013-04-03 12:12:00,
2013-04-03 06:22:00,29.0,29.0,-100.00,South,187,0.0,1.0,100,-99.99,,,-99.99,,2013-04-03 12:22:00,
2013-04-03 06:32:00,28.0,28.0,-100.00,SE,133,0.0,1.0,100,-99.99,,,-99.99,,2013-04-03 12:32:00,
2013-04-03 06:42:00,28.0,28.0,-100.00,SE,133,0.0,1.0,100,-99.99,,,-99.99,,2013-04-03 12:42:00,
2013-04-03 06:52:00,28.0,28.0,-100.00,NNW,341,0.0,1.0,100,-99.99,,,-99.99,,2013-04-03 12:52:00,
2013-04-03 07:02:00,28.0,28.0,-100.00,South,170,0.0,1.0,100,-99.99,,,-99.99,,2013-04-03 13:02:00,
2013-04-03 07:12:00,28.0,28.0,-100.00,South,170,0.0,1.0,100,-99.99,,,-99.99,,2013-04-03 13:12:00,
2013-04-03 07:22:00,28.0,28.0,-100.00,SSE,161,0.0,1.0,100,-99.99,,,-99.99,,2013-04-03 13:22:00,
2013-04-03 07:32:00,28.0,28.0,-100.00,SSE,154,0.0,1.0,100,-99.99,,,-99.99,,2013-04-03 13:32:00,
2013-04-03 07:42:00,28.0,28.0,-100.00,SSE,154,0.0,1.0,100,-99.99,,,-99.99,,2013-04-03 13:42:00,
2013-04-03 07:52:00,28.0,28.0,-100.00,South,169,0.0,2.0,100,-99.99,,,-99.99,,2013-04-03 13:52:00,
2013-04-03 08:02:00,29.0,29.0,-100.00,SW,218,0.0,1.0,100,-99.99,,,-99.99,,2013-04-03 14:02:00,
2013-04-03 08:12:00,29.0,29.0,-100.00,SW,218,0.0,1.0,100,-99.99,,,-99.99,,2013-04-03 14:12:00,
2013-04-03 08:22:00,29.0,29.0,-100.00,SSW,204,1.0,3.0,100,-99.99,,,-99.99,,2013-04-03 14:22:00,
2013-04-03 08:32:00,32.0,30.0,-100.00,WSW,256,1.0,2.0,92,-99.99,,,-99.99,,2013-04-03 14:32:00,
2013-04-03 08:42:00,32.0,30.0,-100.00,WSW,256,1.0,2.0,92,-99.99,,,-99.99,,2013-04-03 14:42:00,
2013-04-03 08:52:00,32.0,30.0,-100.00,SSW,201,1.0,2.0,92,-99.99,,,-99.99,,2013-04-03 14:52:00,
2013-04-03 09:02:00,33.0,31.0,-100.00,South,176,1.0,2.0,93,-99.99,,,-99.99,,2013-04-03 15:02:00,
2013-04-03 09:12:00,33.0,31.0,-100.00,South,176,1.0,2.0,93,-99.99,,,-99.99,,2013-04-03 15:12:00,
2013-04-03 09:22:00,33.0,30.0,-100.00,SE,141,1.0,1.0,90,-99.99,,,-99.99,,2013-04-03 15:22:00,
2013-04-03 09:33:00,36.0,31.0,-100.00,SE,144,1.0,2.0,82,-99.99,,,-99.99,,2013-04-03 15:33:00,
2013-04-03 09:42:00,36.0,31.0,-100.00,SE,144,1.0,2.0,82,-99.99,,,-99.99,,2013-04-03 15:42:00,
2013-04-03 09:53:00,39.0,32.0,-100.00,SE,132,0.0,1.0,75,-99.99,,,-99.99,,2013-04-03 15:53:00,
2013-04-03 10:02:00,40.0,32.0,-100.00,ESE,110,1.0,3.0,73,-99.99,,,-99.99,,2013-04-03 16:02:00,
2013-04-03 10:12:00,40.0,32.0,-100.00,ESE,110,1.0,3.0,73,-99.99,,,-99.99,,2013-04-03 16:12:00,
2013-04-03 10:23:00,44.0,32.0,-100.00,SE,138,1.0,2.0,63,-99.99,,,-99.99,,2013-04-03 16:23:00,
2013-04-03 10:32:00,43.0,32.0,-100.00,East,87,1.0,3.0,64,-99.99,,,-99.99,,2013-04-03 16:32:00,
2013-04-03 10:43:00,43.0,32.0,-100.00,East,87,1.0,3.0,64,-99.99,,,-99.99,,2013-04-03 16:43:00,
2013-04-03 10:52:00,43.0,32.0,-100.00,East,84,1.0,3.0,65,-99.99,,,-99.99,,2013-04-03 16:52:00,
2013-04-03 11:02:00,43.0,32.0,-100.00,ENE,74,1.0,3.0,66,-99.99,,,-99.99,,2013-04-03 17:02:00,
2013-04-03 11:13:00,43.0,32.0,-100.00,ENE,74,1.0,3.0,66,-99.99,,,-99.99,,2013-04-03 17:13:00,
2013-04-03 11:22:00,45.0,34.0,-100.00,NNE,27,1.0,4.0,64,-99.99,,,-99.99,,2013-04-03 17:22:00,
2013-04-03 11:32:00,45.0,34.0,-100.00,SE,129,1.0,3.0,65,-99.99,,,-99.99,,2013-04-03 17:32:00,
2013-04-03 11:45:00,45.0,34.0,-100.00,SE,129,1.0,3.0,65,-99.99,,,-99.99,,2013-04-03 17:45:00,
2013-04-03 11:53:00,43.0,34.0,-100.00,NNE,33,2.0,4.0,70,-99.99,,,-99.99,,2013-04-03 17:53:00,
2013-04-03 12:02:00,43.0,35.0,-100.00,NNE,13,1.0,3.0,72,-99.99,,,-99.99,,2013-04-03 18:02:00,
2013-04-03 12:12:00,43.0,35.0,-100.00,NNE,13,1.0,3.0,72,-99.99,,,-99.99,,2013-04-03 18:12:00,
2013-04-03 12:22:00,45.0,35.0,-100.00,ENE,72,1.0,3.0,68,-99.99,,,-99.99,,2013-04-03 18:22:00,
2013-04-03 12:33:00,45.0,34.0,-100.00,ENE,77,2.0,5.0,65,-99.99,,,-99.99,,2013-04-03 18:33:00,
2013-04-03 12:42:00,45.0,34.0,-100.00,ENE,77,2.0,5.0,65,-99.99,,,-99.99,,2013-04-03 18:42:00,
2013-04-03 12:52:00,44.0,31.0,-100.00,WSW,258,1.0,3.0,61,-99.99,,,-99.99,,2013-04-03 18:52:00,
2013-04-03 13:02:00,46.0,29.0,-100.00,ESE,120,2.0,4.0,52,-99.99,,,-99.99,,2013-04-03 19:02:00,
2013-04-03 13:12:00,46.0,29.0,-100.00,ESE,120,2.0,4.0,52,-99.99,,,-99.99,,2013-04-03 19:12:00,
2013-04-03 13:22:00,47.0,30.0,-100.00,East,92,1.0,4.0,51,-99.99,,,-99.99,,2013-04-03 19:22:00,
2013-04-03 13:32:00,46.0,30.0,-100.00,North,6,3.0,6.0,54,-99.99,,,-99.99,,2013-04-03 19:32:00,
2013-04-03 13:42:00,46.0,30.0,-100.00,North,6,3.0,6.0,54,-99.99,,,-99.99,,2013-04-03 19:42:00,
2013-04-03 13:52:00,46.0,29.0,-100.00,WSW,244,1.0,2.0,52,-99.99,,,-99.99,,2013-04-03 19:52:00,
2013-04-03 14:02:00,46.0,28.0,-100.00,NE,53,2.0,4.0,50,-99.99,,,-99.99,,2013-04-03 20:02:00,
2013-04-03 14:12:00,46.0,28.0,-100.00,NE,53,2.0,4.0,50,-99.99,,,-99.99,,2013-04-03 20:12:00,
2013-04-03 14:22:00,48.0,31.0,-100.00,NNE,12,1.0,2.0,51,-99.99,,,-99.99,,2013-04-03 20:22:00,
2013-04-03 14:32:00,49.0,29.0,-100.00,NW,304,1.0,3.0,45,-99.99,,,-99.99,,2013-04-03 20:32:00,
2013-04-03 14:42:00,49.0,29.0,-100.00,NW,304,1.0,3.0,45,-99.99,,,-99.99,,2013-04-03 20:42:00,
2013-04-03 14:52:00,48.0,29.0,-100.00,NW,320,2.0,6.0,48,-99.99,,,-99.99,,2013-04-03 20:52:00,
2013-04-03 15:02:00,49.0,27.0,-100.00,NW,326,3.0,7.0,43,-99.99,,,-99.99,,2013-04-03 21:02:00,
2013-04-03 15:12:00,49.0,27.0,-100.00,NW,326,3.0,7.0,43,-99.99,,,-99.99,,2013-04-03 21:12:00,
2013-04-03 15:22:00,47.0,26.0,-100.00,North,3,3.0,7.0,43,-99.99,,,-99.99,,2013-04-03 21:22:00,
2013-04-03 15:32:00,47.0,27.0,-100.00,North,5,2.0,5.0,45,-99.99,,,-99.99,,2013-04-03 21:32:00,
2013-04-03 15:42:00,47.0,27.0,-100.00,North,5,2.0,5.0,45,-99.99,,,-99.99,,2013-04-03 21:42:00,
2013-04-03 15:52:00,47.0,24.0,-100.00,NNE,14,1.0,3.0,40,-99.99,,,-99.99,,2013-04-03 21:52:00,
2013-04-03 16:02:00,48.0,23.0,-100.00,NNE,24,3.0,7.0,37,-99.99,,,-99.99,,2013-04-03 22:02:00,
2013-04-03 16:12:00,48.0,23.0,-100.00,NNE,24,3.0,7.0,37,-99.99,,,-99.99,,2013-04-03 22:12:00,
2013-04-03 16:22:00,49.0,24.0,-100.00,NNE,20,2.0,6.0,37,-99.99,,,-99.99,,2013-04-03 22:22:00,
2013-04-03 16:32:00,49.0,27.0,-100.00,NNE,25,1.0,6.0,43,-99.99,,,-99.99,,2013-04-03 22:32:00,
2013-04-03 16:42:00,49.0,27.0,-100.00,NNE,25,1.0,6.0,43,-99.99,,,-99.99,,2013-04-03 22:42:00,
2013-04-03 16:52:00,50.0,25.0,-100.00,NNW,338,2.0,5.0,37,-99.99,,,-99.99,,2013-04-03 22:52:00,
2013-04-03 17:02:00,49.0,21.0,-100.00,North,349,2.0,6.0,33,-99.99,,,-99.99,,2013-04-03 23:02:00,
2013-04-03 17:12:00,49.0,21.0,-100.00,North,349,2.0,6.0,33,-99.99,,,-99.99,,2013-04-03 23:12:00,
2013-04-03 17:22:00,50.0,24.0,-100.00,SW,214,1.0,5.0,36,-99.99,,,-99.99,,2013-04-03 23:22:00,
2013-04-03 17:32:00,49.0,23.0,-100.00,North,353,2.0,7.0,35,-99.99,,,-99.99,,2013-04-03 23:32:00,
2013-04-03 17:42:00,49.0,23.0,-100.00,North,353,2.0,7.0,35,-99.99,,,-99.99,,2013-04-03 23:42:00,
2013-04-03 17:53:00,48.0,24.0,-100.00,NNW,334,2.0,7.0,39,-99.99,,,-99.99,,2013-04-03 23:53:00,
2013-04-03 18:02:00,48.0,25.0,-100.00,NW,318,1.0,4.0,40,-99.99,,,-99.99,,2013-04-04 00:02:00,
2013-04-03 18:12:00,48.0,25.0,-100.00,NW,318,1.0,4.0,40,-99.99,,,-99.99,,2013-04-04 00:12:00,
2013-04-03 18:22:00,47.0,25.0,-100.00,NNE,21,2.0,5.0,41,-99.99,,,-99.99,,2013-04-04 00:22:00,
2013-04-03 18:32:00,46.0,24.0,-100.00,ESE,105,1.0,3.0,41,-99.99,,,-99.99,,2013-04-04 00:32:00,
2013-04-03 18:43:00,46.0,24.0,-100.00,ESE,105,1.0,3.0,41,-99.99,,,-99.99,,2013-04-04 00:43:00,
2013-04-03 18:52:00,46.0,24.0,-100.00,North,349,2.0,5.0,41,-99.99,,,-99.99,,2013-04-04 00:52:00,
2013-04-03 19:02:00,46.0,24.0,-100.00,South,190,2.0,4.0,42,-99.99,,,-99.99,,2013-04-04 01:02:00,
2013-04-03 19:11:00,46.0,24.0,-100.00,South,190,2.0,4.0,42,-99.99,,,-99.99,,2013-04-04 01:11:00,
2013-04-03 19:22:00,44.0,25.0,-100.00,South,175,1.0,3.0,47,-99.99,,,-99.99,,2013-04-04 01:22:00,
2013-04-03 19:32:00,43.0,25.0,-100.00,West,274,1.0,4.0,49,-99.99,,,-99.99,,2013-04-04 01:32:00,
2013-04-03 19:43:00,43.0,25.0,-100.00,West,274,1.0,4.0,49,-99.99,,,-99.99,,2013-04-04 01:43:00,
2013-04-03 19:52:00,41.0,27.0,-100.00,SSW,208,1.0,2.0,57,-99.99,,,-99.99,,2013-04-04 01:52:00,
2013-04-03 20:02:00,40.0,29.0,-100.00,SE,132,2.0,3.0,64,-99.99,,,-99.99,,2013-04-04 02:02:00,
2013-04-03 20:12:00,40.0,29.0,-100.00,SE,132,2.0,3.0,64,-99.99,,,-99.99,,2013-04-04 02:12:00,
2013-04-03 20:22:00,39.0,27.0,-100.00,SSE,166,1.0,4.0,63,-99.99,,,-99.99,,2013-04-04 02:22:00,
2013-04-03 20:32:00,38.0,30.0,-100.00,WNW,293,0.0,2.0,72,-99.99,,,-99.99,,2013-04-04 02:32:00,
2013-04-03 20:42:00,38.0,30.0,-100.00,WNW,293,0.0,2.0,72,-99.99,,,-99.99,,2013-04-04 02:42:00,
2013-04-03 20:52:00,38.0,30.0,-100.00,WNW,293,0.0,2.0,72,-99.99,,,-99.99,,2013-04-04 02:52:00,
2013-04-03 21:02:00,36.0,30.0,-100.00,South,176,1.0,2.0,79,-99.99,,,-99.99,,2013-04-04 03:02:00,
2013-04-03 21:11:00,36.0,30.0,-100.00,South,176,1.0,2.0,79,-99.99,,,-99.99,,2013-04-04 03:11:00,
2013-04-03 21:22:00,36.0,30.0,-100.00,South,176,1.0,2.0,79,-99.99,,,-99.99,,2013-04-04 03:22:00,
2013-04-03 21:33:00,35.0,29.0,-100.00,South,179,0.0,1.0,80,-99.99,,,-99.99,,2013-04-04 03:33:00,
2013-04-03 21:43:00,35.0,29.0,-100.00,South,179,0.0,1.0,80,-99.99,,,-99.99,,2013-04-04 03:43:00,
2013-04-03 21:53:00,35.0,30.0,-100.00,East,88,0.0,2.0,81,-99.99,,,-99.99,,2013-04-04 03:53:00,
2013-04-03 22:02:00,35.0,30.0,-100.00,WNW,284,0.0,1.0,81,-99.99,,,-99.99,,2013-04-04 04:02:00,
2013-04-03 22:12:00,35.0,30.0,-100.00,WNW,284,0.0,1.0,81,-99.99,,,-99.99,,2013-04-04 04:12:00,
2013-04-03 22:22:00,34.0,29.0,-100.00,WSW,247,1.0,3.0,82,-99.99,,,-99.99,,2013-04-04 04:22:00,
2013-04-03 22:33:00,35.0,29.0,-100.00,SW,229,1.0,2.0,78,-99.99,,,-99.99,,2013-04-04 04:33:00,
2013-04-03 22:42:00,35.0,29.0,-100.00,SW,229,1.0,2.0,78,-99.99,,,-99.99,,2013-04-04 04:42:00,
2013-04-03 22:52:00,37.0,27.0,-100.00,NNE,27,1.0,2.0,66,-99.99,,,-99.99,,2013-04-04 04:52:00,
2013-04-03 23:02:00,37.0,27.0,-100.00,SSW,195,1.0,2.0,66,-99.99,,,-99.99,,2013-04-04 05:02:00,
2013-04-03 23:12:00,37.0,27.0,-100.00,SSW,195,1.0,2.0,66,-99.99,,,-99.99,,2013-04-04 05:12:00,
2013-04-03 23:22:00,36.0,25.0,-100.00,SSW,207,1.0,2.0,64,-99.99,,,-99.99,,2013-04-04 05:22:00,
2013-04-03 23:32:00,35.0,24.0,-100.00,SSW,200,1.0,1.0,64,-99.99,,,-99.99,,2013-04-04 05:32:00,
2013-04-03 23:42:00,35.0,24.0,-100.00,SSW,200,1.0,1.0,64,-99.99,,,-99.99,,2013-04-04 05:42:00,
2013-04-03 23:52:00,35.0,25.0,-100.00,SSW,210,1.0,1.0,66,-99.99,,,-99.99,,2013-04-04 05:52:00,